Terminal Aerodrome Forecast
Issued by NWS Mt. Holly, NJ

Home | Current Version | Previous Version | Text Only | Print | Product List | Glossary On
Versions: 1 2 3 4 5 6 7 8 9 10 11 12 13 14
000
FTUS41 KPHI 012336
TAFACY
TAF
KACY 012336Z 0200/0224 11006KT 6SM HZ FEW250
     FM020900 VRB03KT 4SM BR SCT250
     FM021400 12006KT P6SM SCT050=

USA.gov is the U.S. government's official web portal to all federal, state and local government web resources and services.